RLTS YMES-YMES

Flight info

Callsign RLTS
Flight time 1h 1m
Altitude 6000
Route ESL DCT WSL DCT ESL
Aircraft PC21/L-SDFGRWY/S

Departure

Time 2026-05-01 10:33
Airport RAAF Base East Sale (YMES)

Arrival

Time 2026-05-01 11:35
Airport RAAF Base East Sale (YMES)
Time Latitude Longitude Altitude Speed Heading
2026-05-01 10:25 -38.09901 147.13594 26 ft 0 kts 188°
2026-05-01 10:27 -38.09918 147.13588 27 ft 4 kts 219°
2026-05-01 10:27 -38.09872 147.13571 27 ft 4 kts 312°
2026-05-01 10:28 -38.09863 147.13510 27 ft 8 kts 277°
2026-05-01 10:28 -38.09781 147.13449 27 ft 9 kts 309°
2026-05-01 10:28 -38.09764 147.13366 23 ft 10 kts 278°
2026-05-01 10:29 -38.09740 147.13177 22 ft 12 kts 278°
2026-05-01 10:29 -38.09726 147.13064 20 ft 15 kts 278°
2026-05-01 10:30 -38.09689 147.12843 24 ft 8 kts 317°
2026-05-01 10:30 -38.09660 147.12828 22 ft 0 kts 359°
2026-05-01 10:31 -38.09576 147.12901 23 ft 10 kts 97°
2026-05-01 10:32 -38.09588 147.12998 22 ft 0 kts 99°
2026-05-01 10:32 -38.09590 147.13015 22 ft 18 kts 99°
2026-05-01 10:33 -38.09783 147.14556 111 ft 138 kts 99°
2026-05-01 10:33 -38.10220 147.17632 893 ft 200 kts 98°
2026-05-01 10:34 -38.10456 147.19408 1543 ft 206 kts 96°
2026-05-01 10:34 -38.10946 147.21114 2201 ft 216 kts 130°
2026-05-01 10:34 -38.12380 147.21755 2608 ft 238 kts 186°
2026-05-01 10:35 -38.14285 147.18596 3544 ft 251 kts 274°
2026-05-01 10:35 -38.13934 147.16413 3692 ft 263 kts 286°
2026-05-01 10:35 -38.13448 147.14115 3765 ft 275 kts 287°
2026-05-01 10:35 -38.12904 147.11755 3867 ft 282 kts 288°
2026-05-01 10:36 -38.11670 147.06883 3878 ft 292 kts 290°
2026-05-01 10:36 -38.11005 147.04445 3909 ft 293 kts 291°
2026-05-01 10:36 -38.10313 147.01997 3812 ft 295 kts 291°
2026-05-01 10:37 -38.09641 146.99532 3790 ft 295 kts 288°
2026-05-01 10:37 -38.10447 146.94586 3313 ft 312 kts 226°
2026-05-01 10:37 -38.12315 146.93167 2642 ft 326 kts 196°
2026-05-01 10:38 -38.14570 146.92631 2293 ft 327 kts 190°
2026-05-01 10:38 -38.16276 146.91221 3054 ft 293 kts 250°
2026-05-01 10:38 -38.15719 146.88952 2929 ft 292 kts 330°
2026-05-01 10:38 -38.13815 146.89378 1829 ft 314 kts 48°
2026-05-01 10:39 -38.13064 146.92012 1129 ft 323 kts 77°
2026-05-01 10:39 -38.12604 146.94754 1122 ft 305 kts 72°
2026-05-01 10:39 -38.11195 146.96095 1823 ft 276 kts 346°
2026-05-01 10:39 -38.10515 146.94074 1554 ft 297 kts 241°
2026-05-01 10:40 -38.12327 146.93547 1095 ft 302 kts 145°
2026-05-01 10:40 -38.13177 146.95920 574 ft 308 kts 98°
2026-05-01 10:40 -38.13366 146.97467 3575 ft 72 kts 272°
2026-05-01 10:40 -38.13404 146.97008 1474 ft 201 kts 94°
2026-05-01 10:41 -38.13397 146.99551 732 ft 291 kts 66°
2026-05-01 10:41 -38.11785 147.00122 1144 ft 281 kts 321°
2026-05-01 10:41 -38.12054 146.95754 2780 ft 9 kts 78°
2026-05-01 10:42 -38.11946 146.96418 2565 ft 23 kts 254°
2026-05-01 10:42 -38.12407 146.94206 627 ft 299 kts 269°
2026-05-01 10:42 -38.11220 146.92826 1565 ft 257 kts 20°
2026-05-01 10:42 -38.10778 146.94823 862 ft 291 kts 114°
2026-05-01 10:43 -38.11738 146.97108 1158 ft 236 kts 117°
2026-05-01 10:43 -38.12773 146.98104 2672 ft 200 kts 139°
2026-05-01 10:43 -38.13624 147.00246 711 ft 308 kts 92°
2026-05-01 10:43 -38.12290 147.01626 1235 ft 279 kts 343°
2026-05-01 10:44 -38.11509 146.99538 955 ft 299 kts 262°
2026-05-01 10:44 -38.11923 146.96880 574 ft 303 kts 258°
2026-05-01 10:44 -38.12036 146.96344 3902 ft 129 kts 78°
2026-05-01 10:44 -38.12173 146.95588 536 ft 310 kts 260°
2026-05-01 10:45 -38.11559 146.93404 1330 ft 266 kts 344°
2026-05-01 10:45 -38.10336 146.94607 1405 ft 272 kts 90°
2026-05-01 10:45 -38.11113 146.96933 708 ft 301 kts 118°
2026-05-01 10:45 -38.11881 146.98597 3070 ft 21 kts 290°
2026-05-01 10:46 -38.11723 146.97993 2073 ft 110 kts 112°
2026-05-01 10:46 -38.12515 147.00214 604 ft 300 kts 113°
2026-05-01 10:46 -38.13819 147.01815 1645 ft 269 kts 180°
2026-05-01 10:46 -38.14873 147.00160 1492 ft 282 kts 279°
2026-05-01 10:47 -38.13827 146.98002 1197 ft 288 kts 309°
2026-05-01 10:47 -38.12634 146.96000 1235 ft 281 kts 308°
2026-05-01 10:47 -38.11474 146.94009 1326 ft 278 kts 308°
2026-05-01 10:47 -38.10432 146.91996 1747 ft 272 kts 288°
2026-05-01 10:48 -38.11265 146.90067 1745 ft 289 kts 194°
2026-05-01 10:48 -38.12902 146.91174 1422 ft 293 kts 110°
2026-05-01 10:48 -38.13300 146.93706 1376 ft 292 kts 98°
2026-05-01 10:48 -38.13629 146.96248 1368 ft 291 kts 97°
2026-05-01 10:49 -38.13947 146.98784 1352 ft 290 kts 97°
2026-05-01 10:49 -38.14245 147.01276 1340 ft 288 kts 97°
2026-05-01 10:49 -38.14535 147.03825 1384 ft 286 kts 99°
2026-05-01 10:49 -38.15670 147.05684 1807 ft 283 kts 158°
2026-05-01 10:50 -38.17527 147.05189 1961 ft 291 kts 226°
2026-05-01 10:50 -38.18093 147.02818 2059 ft 290 kts 279°
2026-05-01 10:50 -38.17409 147.00401 2011 ft 292 kts 296°
2026-05-01 10:50 -38.16564 146.98043 2029 ft 292 kts 296°
2026-05-01 10:51 -38.15689 146.95729 2122 ft 289 kts 295°
2026-05-01 10:51 -38.15696 146.93293 2129 ft 294 kts 233°
2026-05-01 10:51 -38.17536 146.92946 1978 ft 295 kts 140°
2026-05-01 10:51 -38.17719 146.95204 1839 ft 286 kts 47°
2026-05-01 10:52 -38.15819 146.95992 1217 ft 305 kts
2026-05-01 10:52 -38.13680 146.96089 896 ft 308 kts
2026-05-01 10:52 -38.11555 146.96375 707 ft 305 kts
2026-05-01 10:52 -38.09451 146.96760 501 ft 305 kts
2026-05-01 10:53 -38.07662 146.97093 2207 ft 72 kts
2026-05-01 10:53 -38.08217 146.97004 3153 ft 52 kts 165°
2026-05-01 10:53 -38.06736 146.97561 541 ft 302 kts 39°
2026-05-01 10:53 -38.06831 146.99757 701 ft 289 kts 148°
2026-05-01 10:54 -38.08593 146.99158 711 ft 290 kts 234°
2026-05-01 10:54 -38.08947 146.96704 683 ft 290 kts 284°
2026-05-01 10:54 -38.07813 146.94678 821 ft 282 kts 323°
2026-05-01 10:54 -38.06076 146.93734 1267 ft 270 kts
2026-05-01 10:55 -38.04813 146.95153 1340 ft 278 kts 88°
2026-05-01 10:55 -38.06131 146.96763 907 ft 301 kts 172°
2026-05-01 10:55 -38.08248 146.96494 625 ft 307 kts 189°
2026-05-01 10:55 -38.10266 146.95911 1042 ft 283 kts 209°
2026-05-01 10:56 -38.11589 146.94166 1619 ft 275 kts 236°
2026-05-01 10:56 -38.12695 146.92159 1849 ft 279 kts 235°
2026-05-01 10:56 -38.14352 146.91073 1856 ft 290 kts 170°
2026-05-01 10:56 -38.15661 146.92824 1507 ft 294 kts 97°
2026-05-01 10:57 -38.15019 146.95194 1181 ft 296 kts 44°
2026-05-01 10:57 -38.13133 146.96197 862 ft 301 kts
2026-05-01 10:57 -38.11053 146.96535 662 ft 301 kts
2026-05-01 10:57 -38.08980 146.96896 513 ft 300 kts
2026-05-01 10:58 -38.07688 146.97132 1220 ft 200 kts
2026-05-01 10:58 -38.08095 146.97145 2829 ft 12 kts 33°
2026-05-01 10:58 -38.06404 146.97113 542 ft 308 kts 327°
2026-05-01 10:58 -38.06287 146.94833 598 ft 297 kts 218°
2026-05-01 10:59 -38.08141 146.95049 664 ft 288 kts 137°
2026-05-01 10:59 -38.08771 146.96487 666 ft 286 kts 95°
2026-05-01 10:59 -38.07940 146.98642 902 ft 273 kts 46°
2026-05-01 10:59 -38.07466 147.00704 1527 ft 269 kts 119°
2026-05-01 11:00 -38.09093 147.00740 1050 ft 294 kts 239°
2026-05-01 11:00 -38.09130 146.98121 441 ft 312 kts 279°
2026-05-01 11:00 -38.08784 146.95528 1102 ft 176 kts 282°
2026-05-01 11:00 -38.08812 146.96106 2398 ft 21 kts 329°
2026-05-01 11:01 -38.08282 146.94165 611 ft 286 kts 328°
2026-05-01 11:01 -38.06664 146.94807 815 ft 276 kts 61°
2026-05-01 11:01 -38.06422 146.97239 809 ft 279 kts 91°
2026-05-01 11:01 -38.06449 146.99696 887 ft 278 kts 85°
2026-05-01 11:02 -38.06586 147.02097 936 ft 280 kts 122°
2026-05-01 11:02 -38.08300 147.02732 1056 ft 288 kts 205°
2026-05-01 11:02 -38.09268 147.00596 647 ft 302 kts 270°
2026-05-01 11:02 -38.09007 146.97936 527 ft 299 kts 278°
2026-05-01 11:03 -38.08723 146.95362 545 ft 288 kts 278°
2026-05-01 11:03 -38.08441 146.92904 773 ft 276 kts 279°
2026-05-01 11:03 -38.08164 146.90535 1373 ft 260 kts 281°
2026-05-01 11:03 -38.07066 146.89094 1823 ft 255 kts
2026-05-01 11:04 -38.06156 146.90860 1111 ft 293 kts 100°
2026-05-01 11:04 -38.07109 146.93244 617 ft 308 kts 121°
2026-05-01 11:04 -38.08066 146.95176 2381 ft 56 kts 126°
2026-05-01 11:04 -38.07875 146.94518 2569 ft 24 kts 138°
2026-05-01 11:05 -38.08725 146.96517 552 ft 305 kts 96°
2026-05-01 11:05 -38.07834 146.98671 970 ft 281 kts 43°
2026-05-01 11:05 -38.07222 147.00837 1206 ft 282 kts 109°
2026-05-01 11:05 -38.08853 147.01627 912 ft 297 kts 214°
2026-05-01 11:06 -38.09294 146.99194 476 ft 307 kts 280°
2026-05-01 11:06 -38.08917 146.96537 398 ft 303 kts 280°
2026-05-01 11:06 -38.08541 146.93951 611 ft 288 kts 281°
2026-05-01 11:07 -38.06611 146.92453 1501 ft 270 kts 84°
2026-05-01 11:07 -38.07338 146.94836 565 ft 309 kts 119°
2026-05-01 11:07 -38.08288 146.96682 2807 ft 180 kts 146°
2026-05-01 11:07 -38.09424 146.97826 1370 ft 281 kts 121°
2026-05-01 11:08 -38.10145 147.00337 758 ft 307 kts 74°
2026-05-01 11:08 -38.08601 147.01865 1082 ft 286 kts 16°
2026-05-01 11:08 -38.04996 147.01461 1206 ft 289 kts 305°
2026-05-01 11:09 -38.04815 146.99015 1079 ft 297 kts 248°
2026-05-01 11:09 -38.06352 146.97298 673 ft 308 kts 199°
2026-05-01 11:09 -38.08367 146.96672 1179 ft 205 kts 192°
2026-05-01 11:10 -38.09201 146.96365 442 ft 319 kts 191°
2026-05-01 11:10 -38.10884 146.95949 2534 ft 234 kts 191°
2026-05-01 11:10 -38.12606 146.95687 2503 ft 258 kts 186°
2026-05-01 11:10 -38.14348 146.95179 2896 ft 254 kts 214°
2026-05-01 11:11 -38.15210 146.93345 3290 ft 250 kts 269°
2026-05-01 11:11 -38.14406 146.91449 3020 ft 266 kts 332°
2026-05-01 11:11 -38.12594 146.91447 2592 ft 285 kts 28°
2026-05-01 11:11 -38.11499 146.93503 2212 ft 294 kts 80°
2026-05-01 11:12 -38.11672 146.96066 2177 ft 290 kts 97°
2026-05-01 11:12 -38.11997 146.98575 2156 ft 286 kts 101°
2026-05-01 11:12 -38.13291 147.00302 2200 ft 292 kts 171°
2026-05-01 11:12 -38.14983 146.99215 2259 ft 291 kts 241°
2026-05-01 11:13 -38.15248 146.96697 2073 ft 291 kts 272°
2026-05-01 11:13 -38.15167 146.94157 2235 ft 285 kts 278°
2026-05-01 11:13 -38.14146 146.92196 2511 ft 274 kts 335°
2026-05-01 11:13 -38.12597 146.92856 2259 ft 285 kts 74°
2026-05-01 11:14 -38.12223 146.95322 2351 ft 283 kts 78°
2026-05-01 11:14 -38.11899 146.97776 2585 ft 280 kts 79°
2026-05-01 11:14 -38.11595 147.00205 2786 ft 279 kts 90°
2026-05-01 11:14 -38.12843 147.00530 2162 ft 289 kts 266°
2026-05-01 11:15 -38.12587 146.98032 2326 ft 285 kts 279°
2026-05-01 11:15 -38.12330 146.95522 2374 ft 287 kts 278°
2026-05-01 11:15 -38.12100 146.93047 2426 ft 281 kts 278°
2026-05-01 11:15 -38.11868 146.90649 2705 ft 268 kts 279°
2026-05-01 11:16 -38.11659 146.88302 2738 ft 269 kts 277°
2026-05-01 11:16 -38.10684 146.86739 2593 ft 262 kts 19°
2026-05-01 11:16 -38.10310 146.88783 2867 ft 275 kts 101°
2026-05-01 11:16 -38.10723 146.91148 2948 ft 276 kts 101°
2026-05-01 11:17 -38.11133 146.93529 3048 ft 274 kts 101°
2026-05-01 11:17 -38.11547 146.95894 3095 ft 274 kts 101°
2026-05-01 11:17 -38.11996 146.98265 3070 ft 277 kts 113°
2026-05-01 11:17 -38.13540 146.98339 2877 ft 277 kts 246°
2026-05-01 11:18 -38.13784 146.95997 3027 ft 270 kts 267°
2026-05-01 11:18 -38.13879 146.93596 3059 ft 274 kts 270°
2026-05-01 11:18 -38.13882 146.91166 3106 ft 275 kts 260°
2026-05-01 11:18 -38.15322 146.90881 3256 ft 263 kts 115°
2026-05-01 11:19 -38.15171 146.93116 3312 ft 263 kts 73°
2026-05-01 11:19 -38.14615 146.95361 3384 ft 267 kts 68°
2026-05-01 11:19 -38.13893 146.97495 3532 ft 266 kts 63°
2026-05-01 11:19 -38.12990 146.99532 3726 ft 263 kts 56°
2026-05-01 11:20 -38.11913 147.01414 3860 ft 264 kts 49°
2026-05-01 11:20 -38.10645 147.03115 3945 ft 265 kts 42°
2026-05-01 11:20 -38.10960 147.04836 3868 ft 274 kts 181°
2026-05-01 11:20 -38.12173 147.03154 3592 ft 282 kts 258°
2026-05-01 11:21 -38.12581 147.00714 3597 ft 284 kts 259°
2026-05-01 11:21 -38.12986 146.98300 3945 ft 272 kts 259°
2026-05-01 11:21 -38.13376 146.96014 4460 ft 260 kts 259°
2026-05-01 11:21 -38.14084 146.93967 4607 ft 268 kts 204°
2026-05-01 11:22 -38.15320 146.95047 4628 ft 257 kts 78°
2026-05-01 11:22 -38.14404 146.97004 4477 ft 267 kts 53°
2026-05-01 11:22 -38.13333 146.98937 4454 ft 271 kts 54°
2026-05-01 11:22 -38.12270 147.00887 4753 ft 264 kts 54°
2026-05-01 11:23 -38.11231 147.02781 5043 ft 260 kts 53°
2026-05-01 11:23 -38.11383 147.04702 4705 ft 281 kts 162°
2026-05-01 11:23 -38.12871 147.03459 4095 ft 295 kts 263°
2026-05-01 11:23 -38.12769 147.00834 3625 ft 299 kts 277°
2026-05-01 11:24 -38.12511 146.98258 3579 ft 290 kts 280°
2026-05-01 11:24 -38.12172 146.95752 3650 ft 285 kts 282°
2026-05-01 11:24 -38.12938 146.91970 3666 ft 280 kts 154°
2026-05-01 11:25 -38.13395 146.94106 3500 ft 276 kts 77°
2026-05-01 11:25 -38.12498 146.98939 3203 ft 286 kts 73°
2026-05-01 11:25 -38.11945 147.01320 3186 ft 283 kts 71°
2026-05-01 11:26 -38.11351 147.03683 3278 ft 279 kts 72°
2026-05-01 11:26 -38.12938 147.03020 2623 ft 292 kts 271°
2026-05-01 11:26 -38.12937 147.00455 2554 ft 290 kts 272°
2026-05-01 11:27 -38.12922 146.97885 2254 ft 292 kts 272°
2026-05-01 11:27 -38.12860 146.95286 1879 ft 296 kts 274°
2026-05-01 11:27 -38.12704 146.92684 1614 ft 294 kts 277°
2026-05-01 11:27 -38.12446 146.90127 1440 ft 290 kts 279°
2026-05-01 11:28 -38.12132 146.87617 1268 ft 287 kts 281°
2026-05-01 11:28 -38.12811 146.85756 1314 ft 275 kts 168°
2026-05-01 11:28 -38.13394 146.87649 1488 ft 260 kts 74°
2026-05-01 11:29 -38.12394 146.92091 1846 ft 262 kts 72°
2026-05-01 11:29 -38.11848 146.94313 1859 ft 266 kts 70°
2026-05-01 11:29 -38.13035 146.98039 1894 ft 282 kts 177°
2026-05-01 11:30 -38.14559 146.96743 1975 ft 279 kts 253°
2026-05-01 11:30 -38.14040 146.94588 2161 ft 264 kts 325°
2026-05-01 11:30 -38.12330 146.94447 2304 ft 260 kts 24°
2026-05-01 11:30 -38.10792 146.95691 2243 ft 267 kts 35°
2026-05-01 11:31 -38.09299 146.97114 2272 ft 268 kts 38°
2026-05-01 11:31 -38.07846 146.98608 2290 ft 269 kts 37°
2026-05-01 11:31 -38.06231 146.99809 2274 ft 272 kts 28°
2026-05-01 11:31 -38.04840 147.01407 2262 ft 276 kts 63°
2026-05-01 11:32 -38.04860 147.03754 1976 ft 289 kts 119°
2026-05-01 11:32 -38.06533 147.05304 1391 ft 303 kts 150°
2026-05-01 11:32 -38.08175 147.06834 1241 ft 293 kts 134°
2026-05-01 11:32 -38.09156 147.09056 813 ft 292 kts 100°
2026-05-01 11:33 -38.09419 147.11636 346 ft 295 kts 98°
2026-05-01 11:33 -38.09730 147.14164 415 ft 267 kts 91°
2026-05-01 11:33 -38.08892 147.14238 1005 ft 167 kts 282°
2026-05-01 11:33 -38.08742 147.12903 1014 ft 140 kts 282°
2026-05-01 11:34 -38.08607 147.11682 984 ft 138 kts 275°
2026-05-01 11:34 -38.09062 147.10839 676 ft 120 kts 174°
2026-05-01 11:34 -38.09431 147.11606 287 ft 117 kts 96°
2026-05-01 11:34 -38.09544 147.12638 116 ft 118 kts 99°
2026-05-01 11:35 -38.09664 147.13597 27 ft 93 kts 99°
2026-05-01 11:35 -38.09751 147.14296 25 ft 70 kts 98°
2026-05-01 11:35 -38.09800 147.14683 19 ft 16 kts 102°
2026-05-01 11:35 -38.09864 147.14703 18 ft 12 kts 234°
2026-05-01 11:36 -38.09906 147.14627 19 ft 9 kts 236°
2026-05-01 11:36 -38.09909 147.14543 23 ft 11 kts 279°
2026-05-01 11:36 -38.09895 147.14432 23 ft 14 kts 279°
2026-05-01 11:36 -38.09878 147.14293 27 ft 17 kts 279°
2026-05-01 11:37 -38.09860 147.14152 24 ft 15 kts 279°
2026-05-01 11:37 -38.09857 147.14044 27 ft 6 kts 220°
2026-05-01 11:37 -38.09913 147.14028 30 ft 10 kts 210°
2026-05-01 11:37 -38.09917 147.13953 28 ft 12 kts 279°
2026-05-01 11:38 -38.09903 147.13841 27 ft 14 kts 279°
2026-05-01 11:38 -38.09887 147.13715 26 ft 13 kts 278°
2026-05-01 11:38 -38.09875 147.13617 26 ft 7 kts 279°
2026-05-01 11:38 -38.09894 147.13595 26 ft 4 kts 188°
2026-05-01 11:39 -38.09901 147.13594 26 ft 0 kts 188°